Regional Weather Roundup
Issued by NWS

Home | Current Version | Previous Version | Text Only | Print | Product List | Glossary On
Versions: 1 2 3 4 5 6 7 8 9 10 11 12 13 14 15 16 17 18 19 20 21 22 23 24 25 26 27 28 29 30 31 32 33 34 35 36 37 38 39 40 41 42 43 44 45 46 47 48 49 50
000
ASUS43 KMPX 020810
RWRMN
WEATHER ROUNDUP FOR MINNESOTA
NATIONAL WEATHER SERVICE TWIN CITIES/CHANHASSEN MN
300 AM CDT THU JUL 02 2015


NOTE: "FAIR" INDICATES FEW OR NO CLOUDS BELOW 12,000 FEET WITH NO
SIGNIFICANT WEATHER AND/OR OBSTRUCTIONS TO VISIBILITY. N/A MEANS
CURRENT SKY AND/OR WEATHER CONDITIONS ARE NOT AVAILABLE.

MNZ060>063-068>070-020900-
   Twin Cities Metro

CITY           SKY/WX    TMP DP  RH WIND       PRES   REMARKS
TWIN CITIES    PTCLDY    58  55  90 W3        30.02R
ST PAUL        CLEAR     58  54  86 CALM      30.02R
CRYSTAL        CLEAR     56  52  86 CALM      30.01R
BLAINE         CLEAR     57  54  88 CALM      30.02R
LAKEVILLE      CLEAR     50  50 100 W3        30.02R
EDEN PRAIRIE   CLEAR     57  53  86 NW3       30.01R
SOUTH ST PAUL  CLEAR     58  55  91 CALM      30.01R
LAKE ELMO      FAIR      55  54  94 CALM      30.02S
$$
MNZ001>005-007-008-013>017-022>024-027-028-020900-
   Northwest Minnesota

CITY           SKY/WX    TMP DP  RH WIND       PRES   REMARKS
BEMIDJI        CLEAR     61  57  86 SW5       29.99F
HALLOCK        CLEAR     59  57  94 SE7       29.93F
ROSEAU         CLEAR     61  55  82 SW6       29.95S
WARROAD        CLEAR     61  57  88 SW5       29.96S
THIEF RVR FALL CLEAR     59  55  88 S6        29.98S
CROOKSTON      CLEAR     57  55  94 S7        29.97F
FOSSTON        PTCLDY    55  55 100 CALM      30.00F
DETROIT LAKES  CLEAR     61  55  82 S5        30.01F
MOORHEAD       CLEAR     57  55  94 SE3       29.98F
PARK RAPIDS    CLOUDY    62  56  80 SW5       30.00F
$$
MNZ006-009>011-018-025>026-020900-
   North Central Minnesota

CITY           SKY/WX    TMP DP  RH WIND       PRES   REMARKS
BAUDETTE       CLEAR     57  55  93 CALM      29.95S
FLAG ISLAND    CLEAR     64  61  88 CALM      29.93S
INTL FALLS     CLEAR     54  53  97 CALM      29.95F
WASKISH        CLEAR     66  63  88 W8        29.97S
BIG FORK         N/A     54  54 100 CALM      29.98S FOG
LONGVILLE      CLEAR     57  55  94 CALM      30.00S
GRAND RAPIDS   CLEAR     61  55  82 S5        29.99F
CRANE LAKE     CLEAR     50  48  93 CALM      29.98F
COOK           CLEAR     55  54  94 CALM      29.99S
WALKER         FAIR      60  56  85 W3        30.00S
$$
MNZ012-019>021-037-020900-
   Northeast Minnesota

CITY           SKY/WX    TMP DP  RH WIND       PRES   REMARKS
DULUTH         CLEAR     56  49  77 CALM      30.00F
ELY            CLEAR     50  48  93 CALM      30.00S
HIBBING        PTCLDY    51  49  92 CALM      29.99F FOG
EVELETH        CLEAR     50  50 100 CALM      30.01S
DULUTH HARBOR  CLEAR     59  55  88 NE6       30.01S
TWO HARBORS    CLEAR     52  46  82 CALM      29.99S
SILVER BAY     CLEAR     46  46 100 CALM      29.99S
GRAND MARAIS     N/A     48  45  89 CALM      29.99F
G MARAIS ARPRT PTCLDY    48  39  71 SW3       30.02S
$$
MNZ029>031-032-039>041-046>048-054>057-064-020900-
   West Central Minnesota

CITY           SKY/WX    TMP DP  RH WIND       PRES   REMARKS
FERGUS FALLS   PTCLDY    61  54  77 SE5       29.99F
WHEATON        CLEAR     54  52  94 SE9       29.99F
MORRIS         PTCLDY    55  54  94 SE7       29.98F
ALEXANDRIA     CLEAR     56  53  90 S3        30.02F
ELBOW LAKE     FAIR      58  55  88 SE6       29.99F
WADENA           N/A     59  55  88 CALM      30.00F
GLENWOOD       CLEAR     55  54  94 CALM      30.02F
APPLETON       CLEAR     54  50  87 E3        29.99S
BENSON         CLEAR     55  52  88 CALM      29.99F
ORTONVILLE     CLEAR     55  52  88 CALM      29.98S
MADISON          N/A     54  50  87 SE5       29.98S
WILLMAR        FAIR      54  52  94 CALM      30.01F
$$
MNZ033>034-036-042>043-049>051-058-059-020900-
   Central Minnesota

CITY           SKY/WX    TMP DP  RH WIND       PRES   REMARKS
ST CLOUD       CLEAR     52  51  97 CALM      30.01S
SAUK CENTRE    FAIR      53  52  98 CALM      30.01F FOG
PAYNESVILLE    CLEAR     48  48 100 CALM      30.02F
AITKIN         CLEAR     55  48  76 CALM      30.00S
PINE RIVER       N/A     61  55  82 CALM      30.04S
BRAINERD       CLOUDY    60  55  83 S3        30.01S
STAPLES        CLOUDY    59  54  82 CALM      30.01F
LONG PRAIRIE   FAIR      54  52  94 CALM      30.02F
LITTLE FALLS   CLEAR     52  52 100 CALM      30.01F
LITCHFIELD     CLEAR     55  54  94 CALM      30.02F
BUFFALO        CLEAR     53  49  86 CALM      30.03R
MAPLE LAKE     CLEAR     52  51  95 CALM      30.03R
$$
MNZ037-044-045-052-053-020900-
   East Central Minnesota

CITY           SKY/WX    TMP DP  RH WIND       PRES   REMARKS
PRINCETON      CLEAR     54  52  94 CALM      30.02S
MORA             N/A     54  52  94 CALM      30.03S FOG
CAMBRIDGE      CLEAR     57  50  77 CALM      30.00S
RUSH CITY      MOCLDY    54  52  95 CALM      30.01
MOOSE LAKE       N/A     52  52 100 CALM      30.00R FOG
HINCKLEY       FAIR      52  52 100 CALM      30.01S
CLOQUET        CLEAR     52  48  87 CALM      30.01S
MCGREGOR       CLEAR     59  55  88 CALM      30.01S
$$
MNZ071>073-080-081-089-090-097-098-020900-
   Southwest Minnesota

CITY           SKY/WX    TMP DP  RH WIND       PRES   REMARKS
MONTEVIDEO     CLEAR     54  52  94 SE3       30.00F
GRANITE FALLS  MOCLDY    54  51  91 CALM      30.01F
CANBY          CLEAR     55  52  90 CALM      30.00S
MARSHALL       CLEAR     55  48  76 S6        29.98S
REDWOOD FALLS  CLEAR     56  52  86 CALM      29.99F
OLIVIA         CLEAR     52  48  87 CALM      29.99F
PIPESTONE      CLOUDY    57  55  94 SE6       29.99S
WINDOM         CLEAR     55  50  82 CALM      30.00F
WORTHINGTON    CLEAR     54  48  82 E5        30.00S
JACKSON        CLEAR     52  50  93 SE5       30.00F
TRACY          CLEAR     57  50  77 S6        29.99F
SLAYTON        PTCLDY    55  54  94 CALM      30.01S
$$
MNZ065>067-074>077-082>085-091>093-020900-
   South Central Minnesota

CITY           SKY/WX    TMP DP  RH WIND       PRES   REMARKS
MANKATO        CLEAR     55  48  76 CALM      30.01S
NEW ULM        CLEAR     54  52  94 CALM      30.00F
ST JAMES       CLEAR     52  50  93 CALM      30.01F
FAIRMONT       CLEAR     54  45  71 SE3       29.99F
GLENCOE        CLEAR     52  51  97 CALM      30.01S
FARIBAULT      CLEAR     48  46  93 CALM      30.03R FOG
OWATONNA       CLEAR     52  48  87 CALM      30.02S
WASECA         CLEAR     50  46  87 CALM      30.02S
ALBERT LEA     CLEAR     52  50  93 CALM      30.01S
$$
MNZ078>079-086>088-094>096-020900-
   Southeast Minnesota

CITY           SKY/WX    TMP DP  RH WIND       PRES   REMARKS
ROCHESTER      CLEAR     54  51  90 CALM      30.02S
RED WING       CLEAR     54  52  94 CALM      30.00S
STANTON        CLEAR     52  50  93 CALM      30.00S
DODGE CENTER   PTCLDY    48  48 100 CALM      30.02S
WINONA         CLEAR     54  54 100 CALM      30.01R
AUSTIN         CLEAR     48  46  93 CALM      30.02R
PRESTON        CLEAR     52  49  91 CALM      30.02S
$$
ABBREVIATIONS USED IN REMARKS
   TC - TEMPERATURES IN CELSIUS
  WCI - WIND CHILL INDEX
   HX - HEAT INDEX
  VSB - VISIBILITY
$$


USA.gov is the U.S. government's official web portal to all federal, state and local government web resources and services.